SCP
0 0 0 0 0 0 0 0 0 0 0 0 0 0 0 0 0 0 0 0 0 0 0 0 0 0 0 0 0 0 0 0 0 0 0 0 0 0 0 0 0 0 0
0 0 0 0 0 0 0 0 0 0 0 0 0 0 0 0 0 0 0 0 0 0 0 0 0 0 0 0 0 0 0 0 0 0 0 0 0 0 0 0 0 0 0
0 0 0 0 0 0 0 0 0 0 0 0 0 0 0 0 0 0 0 0 0 0 0 0 0 0 0 0 0 0 0 0 0 0 0 0 0 0 0 0 0 0 0
0 0 0 0 0 0 0 0 0 0 0 0 0 0 0 0 0 0 0 0 0 0 0 0 0 0 0 0 0 0 0 0 0 0 0 0 0 0 0 0 0 0 0
0 0 0 0 0 0 0 0 0 0 0 0 0 0 0 0 0 0 0 0 0 0 0 0 0 0 0 0 0 0 0 0 0 0 0 0 0 0 0 0 0 0 0
0 0 0 0 0 0 0 0 0 0 0 0 0 0 0 0 0 0 0 0 0 0 0 0 0 0 0 0 0 0 0 0 0 0 0 0 0 0 0 0 0 0 0
0 0 0 0 0 0 0 0 0 0 0 0 0 0 0 0 0 0 0 0 0 0 0 0 0 0 0 0 0 0 0 0 0 0 0 0 0 0 0 0 0 0 0
0 0 0 0 0 0 0 0 0 0 0 0 0 0 0 0 0 0 0 0 0 0 0 0 0 0 0 0 0 0 0 0 0 0 0 0 0 0 0 0 0 0 0
0 0 0 0 0 0 0 0 0 0 0 0 0 0 0 0 0 0 0 0 0 0 0 0 0 0 0 0 0 0 0 0 0 0 0 0 0 0 0 0 0 0 0
0 0 0 0 0 0 0 0 0 0 0 0 0 0 0 0 0 0 0 0 0 0 0 0 0 0 0 0 0 0 0 0 0 0 0 0 0 0 0 0 0 0 0
0 0 0 0 0 0 0 0 0 0 0 0 0 0 0 0 0 0 0 0 0 0 0 0 0 0 0 0 0 0 0 0 0 0 0 0 0 0 0 0 0 0 0
0 0 0 0 0 0 0 0 0 0 0 0 0 0 0 0 0 0 0 0 -0 -0 0 0 0 0 0 0 0 0 0 0 0 0 0 0 0 0 0 0 0 0 0
0 0 0 0 0 0 0 0 0 0 0 0 0 0 0 0 0 0 0 0 0 -0 -0 -0 -0 -0 0 0 0 0 0 0 0 0 0 0 -0 -0 -0 -0 -0 -0 -0
0 0 0 0 0 0 0 0 0 0 0 0 0 0 0 0 0 0 0 0 0 0 0 -0 0 0 0 0 0 0 -0 -0 -0 -0 0 0 -0 -0 -0 -0 -0 -0 -0
0 0 0 0 0 0 0 0 0 0 0 0 0 0 0 0 0 0 0 0 0 0 0 0 0 0 0 0 0 -0 -0 -0 -0 -0 -0 0 0 -0 -0 -0 -0 -0 0
0 0 0 0 0 0 0 0 0 0 0 0 0 0 0 0 0 0 0 0 0 0 0 0 0 0 0 0 0 0 -0 -0 -0 -0 -0 -0 -0 -0 0 0 0 0 0
0 0 0 0 0 0 0 0 0 0 0 0 0 0 0 0 0 0 0 0 0 0 0 0 0 0 0 0 -0 -0 -0 -0 -0 -0 -0 -0 0 0 0 0 0 0 0
0 0 0 0 0 0 0 0 0 0 0 0 0 0 0 0 0 0 0 0 0 0 0 0 0 0 0 -0 -0 -0 -0 -0 -0 -0 -0 -0 0 0 0 0 0 0 0
0 0 0 0 0 0 0 0 0 0 0 0 0 0 0 0 0 0 0 0 0 0 0 0 0 0 0 -0 -0 -0 -0 -0 -0 -0 -0 -0 -0 -0 -0 -0 0 0 0
0 0 0 0 0 0 0 0 0 0 0 0 0 0 0 0 0 0 0 0 0 0 0 0 0 0 0 -0 -0 -0 -0 -0 -0 -0 -0 -0 -0 -0 -0 -0 0 0 0
0 0 0 0 0 0 0 0 0 0 0 0 0 0 0 0 0 0 0 0 0 0 0 0 0 0 0 0 0 0 0 0 -0 -0 -0 0 -0 -0 0 0 0 0 0
0 0 0 0 0 0 0 0 0 0 0 0 0 0 0 0 0 0 0 0 0 0 0 0 0 0 0 0 0 0 0 0 0 -0 -0 0 0 0 0 0 0 0 0
0 0 0 0 0 0 0 0 0 0 0 0 0 0 0 0 0 0 0 0 0 0 0 0 0 0 0 0 0 0 0 0 0 0 0 0 0 0 0 0 0 0 0
0 0 0 0 0 0 0 0 0 0 0 0 0 0 0 0 0 0 0 0 0 0 0 0 0 0 0 0 0 0 0 0 0 0 0 0 0 0 0 0 0 0 0
0 0 0 0 0 0 0 0 0 0 0 0 0 0 0 0 0 0 0 0 0 0 0 0 0 0 0 0 0 0 0 0 0 0 0 0 0 0 0 0 0 0 0
0 0 0 0 0 0 0 0 0 0 0 0 0 0 0 0 0 0 0 0 0 0 0 0 0 0 0 0 0 0 0 0 0 0 0 0 0 0 0 0 0 0 0
Wind_Speed_500mb
38 33 29 27 26 25 25 26 25 24 23 25 27 28 27 27 27 25 26 27 26 27 25 24 25 24 26 25 24 25 27 30 32 34 36 41 48 48 44 42 38 37 37
43 38 35 32 31 29 28 28 28 27 27 29 30 28 28 26 27 27 26 25 24 25 25 25 26 27 25 20 18 17 18 20 22 28 35 36 40 45 48 49 45 41 40
49 45 41 38 35 32 31 30 28 29 29 29 29 29 28 28 28 26 22 20 18 18 19 17 18 16 16 16 14 6 11 13 18 25 25 28 28 32 46 53 49 51 49
56 52 48 44 42 38 35 34 31 31 32 32 29 30 29 30 29 22 21 14 9 6 7 7 7 9 8 5 7 13 13 12 16 23 29 29 30 30 41 47 51 54 52
61 57 55 51 46 42 37 34 32 32 33 34 31 31 31 31 25 23 16 10 9 11 9 10 8 9 10 13 13 13 21 18 22 26 26 30 33 37 39 41 45 55 56
66 64 60 56 52 46 41 38 35 34 35 35 33 31 31 29 21 14 12 16 18 12 12 13 13 12 14 21 24 28 29 32 36 35 32 36 35 33 35 38 40 48 56
72 69 65 62 57 51 45 42 38 35 34 34 34 30 27 16 12 17 10 9 16 5 6 12 16 25 29 32 33 36 36 37 37 40 44 46 42 39 40 41 43 43 48
77 73 70 66 61 56 52 46 40 35 34 31 29 31 9 18 15 23 34 18 4 22 23 24 29 35 28 30 33 34 35 36 38 40 43 43 48 51 50 50 48 45 45
81 77 72 69 65 61 57 51 44 37 32 29 28 19 10 6 11 22 12 26 18 24 29 27 23 29 30 28 29 29 31 31 32 36 40 43 46 49 53 57 57 54 51
84 79 75 71 68 65 62 55 48 40 33 29 28 25 22 25 13 13 15 25 33 35 29 28 33 28 31 29 29 29 30 39 44 46 48 52 55 58 60 60 62 61 60
86 83 79 76 73 69 64 58 51 43 36 32 31 29 26 26 29 27 38 34 45 38 32 39 32 38 35 39 33 37 57 62 63 64 66 68 73 72 70 71 70 69 66
90 87 84 81 77 74 68 62 55 49 41 36 35 35 32 28 28 29 35 51 55 48 44 40 45 44 39 46 35 65 70 73 76 76 75 75 79 84 87 85 81 79 77
95 93 90 86 82 78 73 68 63 55 47 42 39 40 39 36 34 32 33 36 46 60 58 51 51 50 58 49 67 76 78 79 79 80 83 83 86 90 93 93 91 84 74
87 89 89 84 82 80 77 73 67 61 54 49 44 43 44 42 40 39 37 35 35 35 47 56 56 58 57 69 76 81 83 84 85 83 83 86 89 94 98 101 99 95 95
85 83 85 83 82 82 81 77 73 68 61 54 50 48 46 43 41 41 40 38 36 25 43 46 47 61 68 74 79 85 90 88 85 86 87 88 90 94 99 103 105 106 103
90 87 85 83 85 85 84 82 77 72 68 62 57 52 47 44 43 42 41 39 39 40 40 51 62 68 73 79 80 82 86 88 88 87 87 87 91 95 96 99 101 102 98
93 92 89 86 86 88 88 85 82 77 73 66 61 54 50 46 45 43 44 42 40 44 58 70 70 76 79 82 86 87 88 87 87 86 89 89 87 90 93 97 91 86 91
99 95 92 90 88 91 91 90 87 84 79 73 66 59 54 50 46 47 45 43 42 44 55 70 78 79 85 87 91 89 89 92 92 93 97 97 95 96 95 93 93 90 87
108 103 98 96 95 96 97 94 89 86 81 75 67 60 55 52 50 48 45 43 42 46 53 67 79 82 85 85 90 91 96 100 99 100 102 105 102 98 95 94 91 86 84
113 111 108 103 99 98 97 94 92 90 87 80 71 63 60 54 51 48 45 42 43 47 54 65 75 81 84 87 90 98 106 100 106 105 108 105 110 105 101 102 90 83 86
109 109 107 104 102 100 99 99 99 95 90 83 73 65 60 54 52 50 46 42 44 45 54 65 74 78 84 87 88 94 104 108 110 105 111 114 110 107 117 110 105 104 92
108 106 106 107 107 107 101 102 98 98 92 82 72 65 61 56 54 50 48 45 46 47 56 60 67 77 82 80 85 91 98 100 108 104 111 113 101 116 122 121 110 88 88
103 102 101 104 107 105 103 104 102 97 89 80 73 66 61 55 51 47 44 39 37 42 47 48 61 66 75 76 82 90 91 94 94 112 122 140 117 127 115 117 104 93 89
102 100 100 102 103 105 102 103 104 98 90 83 74 63 59 54 49 44 40 37 41 44 41 46 56 65 68 70 74 79 87 105 111 108 103 114 108 122 112 106 102 87 88
98 99 98 99 102 102 99 105 109 100 90 82 74 64 59 53 49 41 43 42 46 42 39 46 51 58 62 64 61 76 88 95 110 110 100 99 95 105 99 117 115 99 95
91 91 95 99 100 96 93 105 109 95 89 83 72 65 59 55 43 44 40 41 39 41 45 49 52 53 58 64 63 66 74 81 91 94 63 73 102 89 106 124 70 46 65
Wind_Direction_500mb
226 229 235 244 255 264 271 277 282 290 300 306 310 314 316 312 306 298 292 288 284 279 273 272 270 271 273 271 271 274 275 275 278 280 280 269 262 259 258 259 257 256 262
228 233 238 244 248 254 262 270 278 287 296 304 310 314 315 311 303 298 293 288 282 275 271 264 264 268 272 276 282 291 303 310 299 281 273 277 276 268 261 260 258 260 256
229 231 234 240 247 255 262 267 273 282 290 296 303 309 313 312 306 297 287 280 281 276 274 274 273 278 277 281 280 302 259 264 286 288 291 276 272 275 266 260 259 259 257
229 230 234 238 245 248 254 261 273 283 293 297 302 306 313 313 309 293 280 265 250 274 308 302 294 305 303 308 265 278 286 305 326 278 278 282 281 282 276 269 260 260 260
230 232 233 234 239 244 250 257 268 279 288 294 299 305 311 314 304 290 262 219 304 287 275 267 272 296 296 294 298 313 325 325 300 293 298 292 284 279 281 281 269 262 262
231 232 232 234 239 241 247 255 264 275 284 291 298 305 312 314 297 261 216 280 303 295 285 270 283 292 294 298 302 297 291 294 294 300 302 290 292 296 296 292 284 272 261
231 232 232 234 237 240 244 249 259 271 282 290 296 301 310 302 277 201 341 292 306 348 337 301 299 306 305 299 293 291 295 299 298 290 286 286 288 287 285 283 285 280 275
231 232 233 235 236 237 240 245 253 265 278 289 296 307 285 298 248 230 295 285 246 326 316 313 311 310 311 307 305 301 299 297 295 297 297 294 286 285 284 285 289 295 281
231 233 234 234 235 236 238 242 248 256 269 282 289 290 302 237 262 293 223 279 288 315 321 326 330 321 320 318 316 314 309 310 310 313 312 307 298 293 289 284 285 287 297
230 231 232 234 236 237 239 241 244 250 260 272 278 276 273 279 293 281 267 268 297 310 316 324 326 328 327 327 324 324 327 324 319 317 316 315 312 308 302 298 292 288 289
231 232 232 234 234 236 237 239 243 249 254 262 267 267 267 275 280 282 297 293 304 311 323 328 334 330 331 329 329 327 331 332 330 327 324 321 319 316 312 308 303 296 289
232 232 232 233 234 234 236 240 242 246 253 259 268 271 269 265 269 272 284 301 311 314 323 330 331 330 333 331 332 330 332 331 329 326 324 322 320 318 315 311 306 301 295
232 233 232 232 234 235 235 235 238 242 247 253 262 269 272 274 274 273 280 292 305 314 322 324 328 329 330 331 328 327 327 326 323 323 322 320 318 316 313 310 307 301 297
237 238 235 235 236 237 236 235 236 237 240 246 253 260 266 271 277 281 284 287 296 299 306 316 323 324 324 321 324 323 321 322 322 321 318 316 314 312 309 306 303 300 297
239 238 237 237 238 238 237 236 235 236 237 241 248 255 262 268 272 277 279 283 290 293 302 309 310 314 316 319 320 320 320 322 320 317 315 313 310 307 304 300 297 294 293
241 239 237 236 236 237 237 235 233 234 235 238 244 249 256 262 267 271 276 282 288 290 287 301 304 310 313 316 318 315 316 317 315 314 311 308 308 305 301 296 292 288 288
241 241 238 235 233 234 235 234 234 233 235 238 242 247 252 256 262 267 272 276 284 291 295 302 308 311 313 316 318 321 322 318 314 313 311 308 307 305 302 299 296 295 290
242 241 238 235 233 234 234 234 232 232 233 236 240 245 250 254 257 262 263 272 283 291 297 304 308 311 314 318 319 322 321 318 318 318 318 319 318 311 308 303 299 298 293
242 240 238 234 232 232 232 231 232 233 234 236 238 244 249 252 257 260 263 271 282 291 296 301 306 309 314 318 320 322 321 322 322 321 319 319 316 311 311 307 301 295 292
243 240 239 236 233 232 230 229 230 231 232 232 234 238 243 249 255 256 262 271 283 291 297 301 302 308 317 321 324 322 319 320 319 318 318 317 315 313 311 307 296 289 288
245 241 238 234 233 231 228 228 229 229 229 230 232 235 241 245 250 254 260 272 280 290 298 301 304 312 313 319 320 319 316 317 317 318 317 316 315 309 309 305 300 299 292
244 240 235 233 232 230 228 228 229 229 228 228 231 235 239 241 245 252 262 273 286 297 300 298 307 308 311 316 316 315 316 318 314 317 316 308 309 306 305 301 296 285 281
244 240 235 232 231 230 228 228 227 227 228 228 229 231 236 240 245 251 262 273 284 292 289 293 300 304 308 314 315 317 314 309 302 306 309 304 308 304 300 295 292 283 279
245 242 236 232 230 229 227 227 228 225 224 225 226 228 233 238 243 249 261 273 280 280 289 298 300 306 309 311 308 304 298 298 301 305 308 296 307 305 305 303 298 283 278
242 238 234 230 229 227 225 226 227 223 221 223 224 224 227 232 242 256 266 273 278 290 297 297 300 301 302 303 303 302 304 304 303 306 307 303 308 306 299 294 288 283 279
244 238 232 228 226 225 222 227 229 223 219 217 218 221 227 234 240 253 258 267 280 292 296 300 300 304 306 308 310 305 304 302 305 304 313 300 305 302 301 301 302 288 289
Wind_Speed_850mb
38 33 29 27 26 25 25 26 25 24 23 25 27 28 27 27 27 25 26 27 26 27 25 24 25 24 26 25 24 25 27 30 32 34 36 41 48 48 44 42 38 37 37
43 38 35 32 31 29 28 28 28 27 27 29 30 28 28 26 27 27 26 25 24 25 25 25 26 27 25 20 18 17 18 20 22 28 35 36 40 45 48 49 45 41 40
49 45 41 38 35 32 31 30 28 29 29 29 29 29 28 28 28 26 22 20 18 18 19 17 18 16 16 16 14 6 11 13 18 25 25 28 28 32 46 53 49 51 49
56 52 48 44 42 38 35 34 31 31 32 32 29 30 29 30 29 22 21 14 9 6 7 7 7 9 8 5 7 13 13 12 16 23 29 29 30 30 41 47 51 54 52
61 57 55 51 46 42 37 34 32 32 33 34 31 31 31 31 25 23 16 10 9 11 9 10 8 9 10 13 13 13 21 18 22 26 26 30 33 37 39 41 45 55 56
66 64 60 56 52 46 41 38 35 34 35 35 33 31 31 29 21 14 12 16 18 12 12 13 13 12 14 21 24 28 29 32 36 35 32 36 35 33 35 38 40 48 56
72 69 65 62 57 51 45 42 38 35 34 34 34 30 27 16 12 17 10 9 16 5 6 12 16 25 29 32 33 36 36 37 37 40 44 46 42 39 40 41 43 43 48
77 73 70 66 61 56 52 46 40 35 34 31 29 31 9 18 15 23 34 18 4 22 23 24 29 35 28 30 33 34 35 36 38 40 43 43 48 51 50 50 48 45 45
81 77 72 69 65 61 57 51 44 37 32 29 28 19 10 6 11 22 12 26 18 24 29 27 23 29 30 28 29 29 31 31 32 36 40 43 46 49 53 57 57 54 51
84 79 75 71 68 65 62 55 48 40 33 29 28 25 22 25 13 13 15 25 33 35 29 28 33 28 31 29 29 29 30 39 44 46 48 52 55 58 60 60 62 61 60
86 83 79 76 73 69 64 58 51 43 36 32 31 29 26 26 29 27 38 34 45 38 32 39 32 38 35 39 33 37 57 62 63 64 66 68 73 72 70 71 70 69 66
90 87 84 81 77 74 68 62 55 49 41 36 35 35 32 28 28 29 35 51 55 48 44 40 45 44 39 46 35 65 70 73 76 76 75 75 79 84 87 85 81 79 77
95 93 90 86 82 78 73 68 63 55 47 42 39 40 39 36 34 32 33 36 46 60 58 51 51 50 58 49 67 76 78 79 79 80 83 83 86 90 93 93 91 84 74
87 89 89 84 82 80 77 73 67 61 54 49 44 43 44 42 40 39 37 35 35 35 47 56 56 58 57 69 76 81 83 84 85 83 83 86 89 94 98 101 99 95 95
85 83 85 83 82 82 81 77 73 68 61 54 50 48 46 43 41 41 40 38 36 25 43 46 47 61 68 74 79 85 90 88 85 86 87 88 90 94 99 103 105 106 103
90 87 85 83 85 85 84 82 77 72 68 62 57 52 47 44 43 42 41 39 39 40 40 51 62 68 73 79 80 82 86 88 88 87 87 87 91 95 96 99 101 102 98
93 92 89 86 86 88 88 85 82 77 73 66 61 54 50 46 45 43 44 42 40 44 58 70 70 76 79 82 86 87 88 87 87 86 89 89 87 90 93 97 91 86 91
99 95 92 90 88 91 91 90 87 84 79 73 66 59 54 50 46 47 45 43 42 44 55 70 78 79 85 87 91 89 89 92 92 93 97 97 95 96 95 93 93 90 87
108 103 98 96 95 96 97 94 89 86 81 75 67 60 55 52 50 48 45 43 42 46 53 67 79 82 85 85 90 91 96 100 99 100 102 105 102 98 95 94 91 86 84
113 111 108 103 99 98 97 94 92 90 87 80 71 63 60 54 51 48 45 42 43 47 54 65 75 81 84 87 90 98 106 100 106 105 108 105 110 105 101 102 90 83 86
109 109 107 104 102 100 99 99 99 95 90 83 73 65 60 54 52 50 46 42 44 45 54 65 74 78 84 87 88 94 104 108 110 105 111 114 110 107 117 110 105 104 92
108 106 106 107 107 107 101 102 98 98 92 82 72 65 61 56 54 50 48 45 46 47 56 60 67 77 82 80 85 91 98 100 108 104 111 113 101 116 122 121 110 88 88
103 102 101 104 107 105 103 104 102 97 89 80 73 66 61 55 51 47 44 39 37 42 47 48 61 66 75 76 82 90 91 94 94 112 122 140 117 127 115 117 104 93 89
102 100 100 102 103 105 102 103 104 98 90 83 74 63 59 54 49 44 40 37 41 44 41 46 56 65 68 70 74 79 87 105 111 108 103 114 108 122 112 106 102 87 88
98 99 98 99 102 102 99 105 109 100 90 82 74 64 59 53 49 41 43 42 46 42 39 46 51 58 62 64 61 76 88 95 110 110 100 99 95 105 99 117 115 99 95
91 91 95 99 100 96 93 105 109 95 89 83 72 65 59 55 43 44 40 41 39 41 45 49 52 53 58 64 63 66 74 81 91 94 63 73 102 89 106 124 70 46 65
Wind_Direction_850mb
226 229 235 244 255 264 271 277 282 290 300 306 310 314 316 312 306 298 292 288 284 279 273 272 270 271 273 271 271 274 275 275 278 280 280 269 262 259 258 259 257 256 262
228 233 238 244 248 254 262 270 278 287 296 304 310 314 315 311 303 298 293 288 282 275 271 264 264 268 272 276 282 291 303 310 299 281 273 277 276 268 261 260 258 260 256
229 231 234 240 247 255 262 267 273 282 290 296 303 309 313 312 306 297 287 280 281 276 274 274 273 278 277 281 280 302 259 264 286 288 291 276 272 275 266 260 259 259 257
229 230 234 238 245 248 254 261 273 283 293 297 302 306 313 313 309 293 280 265 250 274 308 302 294 305 303 308 265 278 286 305 326 278 278 282 281 282 276 269 260 260 260
230 232 233 234 239 244 250 257 268 279 288 294 299 305 311 314 304 290 262 219 304 287 275 267 272 296 296 294 298 313 325 325 300 293 298 292 284 279 281 281 269 262 262
231 232 232 234 239 241 247 255 264 275 284 291 298 305 312 314 297 261 216 280 303 295 285 270 283 292 294 298 302 297 291 294 294 300 302 290 292 296 296 292 284 272 261
231 232 232 234 237 240 244 249 259 271 282 290 296 301 310 302 277 201 341 292 306 348 337 301 299 306 305 299 293 291 295 299 298 290 286 286 288 287 285 283 285 280 275
231 232 233 235 236 237 240 245 253 265 278 289 296 307 285 298 248 230 295 285 246 326 316 313 311 310 311 307 305 301 299 297 295 297 297 294 286 285 284 285 289 295 281
231 233 234 234 235 236 238 242 248 256 269 282 289 290 302 237 262 293 223 279 288 315 321 326 330 321 320 318 316 314 309 310 310 313 312 307 298 293 289 284 285 287 297
230 231 232 234 236 237 239 241 244 250 260 272 278 276 273 279 293 281 267 268 297 310 316 324 326 328 327 327 324 324 327 324 319 317 316 315 312 308 302 298 292 288 289
231 232 232 234 234 236 237 239 243 249 254 262 267 267 267 275 280 282 297 293 304 311 323 328 334 330 331 329 329 327 331 332 330 327 324 321 319 316 312 308 303 296 289
232 232 232 233 234 234 236 240 242 246 253 259 268 271 269 265 269 272 284 301 311 314 323 330 331 330 333 331 332 330 332 331 329 326 324 322 320 318 315 311 306 301 295
232 233 232 232 234 235 235 235 238 242 247 253 262 269 272 274 274 273 280 292 305 314 322 324 328 329 330 331 328 327 327 326 323 323 322 320 318 316 313 310 307 301 297
237 238 235 235 236 237 236 235 236 237 240 246 253 260 266 271 277 281 284 287 296 299 306 316 323 324 324 321 324 323 321 322 322 321 318 316 314 312 309 306 303 300 297
239 238 237 237 238 238 237 236 235 236 237 241 248 255 262 268 272 277 279 283 290 293 302 309 310 314 316 319 320 320 320 322 320 317 315 313 310 307 304 300 297 294 293
241 239 237 236 236 237 237 235 233 234 235 238 244 249 256 262 267 271 276 282 288 290 287 301 304 310 313 316 318 315 316 317 315 314 311 308 308 305 301 296 292 288 288
241 241 238 235 233 234 235 234 234 233 235 238 242 247 252 256 262 267 272 276 284 291 295 302 308 311 313 316 318 321 322 318 314 313 311 308 307 305 302 299 296 295 290
242 241 238 235 233 234 234 234 232 232 233 236 240 245 250 254 257 262 263 272 283 291 297 304 308 311 314 318 319 322 321 318 318 318 318 319 318 311 308 303 299 298 293
242 240 238 234 232 232 232 231 232 233 234 236 238 244 249 252 257 260 263 271 282 291 296 301 306 309 314 318 320 322 321 322 322 321 319 319 316 311 311 307 301 295 292
243 240 239 236 233 232 230 229 230 231 232 232 234 238 243 249 255 256 262 271 283 291 297 301 302 308 317 321 324 322 319 320 319 318 318 317 315 313 311 307 296 289 288
245 241 238 234 233 231 228 228 229 229 229 230 232 235 241 245 250 254 260 272 280 290 298 301 304 312 313 319 320 319 316 317 317 318 317 316 315 309 309 305 300 299 292
244 240 235 233 232 230 228 228 229 229 228 228 231 235 239 241 245 252 262 273 286 297 300 298 307 308 311 316 316 315 316 318 314 317 316 308 309 306 305 301 296 285 281
244 240 235 232 231 230 228 228 227 227 228 228 229 231 236 240 245 251 262 273 284 292 289 293 300 304 308 314 315 317 314 309 302 306 309 304 308 304 300 295 292 283 279
245 242 236 232 230 229 227 227 228 225 224 225 226 228 233 238 243 249 261 273 280 280 289 298 300 306 309 311 308 304 298 298 301 305 308 296 307 305 305 303 298 283 278
242 238 234 230 229 227 225 226 227 223 221 223 224 224 227 232 242 256 266 273 278 290 297 297 300 301 302 303 303 302 304 304 303 306 307 303 308 306 299 294 288 283 279
244 238 232 228 226 225 222 227 229 223 219 217 218 221 227 234 240 253 258 267 280 292 296 300 300 304 306 308 310 305 304 302 305 304 313 300 305 302 301 301 302 288 289